Location: Prague
(50.0830°N, 14.4670°E)
Time: 04:59:03
(UTC+01:00)

First-Move - Visible Passes

Search period start: 06 December 2021 00:00
Search period end: 16 December 2021 00:00
Orbit: 575 x 664 km, 97.6° (Epoch: 05 December)

Date Brightness Start Highest point End Pass type
(mag) Time Alt. Az. Time Alt. Az. Time Alt. Az.
06 Dec ? 03:46:03 10° NE 03:46:23 12° NE 03:46:23 12° NE visible
06 Dec ? 05:21:54 10° N 05:23:32 21° N 05:23:32 21° N visible
07 Dec ? 04:03:02 10° NNE 04:03:39 13° NNE 04:03:39 13° NNE visible
07 Dec ? 05:39:22 10° N 05:40:49 18° NNW 05:40:49 18° NNW visible
07 Dec ? 16:39:09 10° SW 16:42:28 21° W 16:45:53 10° NW visible
08 Dec ? 04:20:08 10° NNE 04:20:56 15° NNE 04:20:56 15° NNE visible
08 Dec ? 05:56:56 10° NNW 05:58:05 15° NNW 05:58:05 15° NNW visible
08 Dec ? 16:57:24 10° WSW 16:59:56 15° W 17:02:29 10° NW visible
09 Dec ? 04:37:20 10° NNE 04:38:13 16° NNE 04:38:13 16° NNE visible
09 Dec ? 06:14:40 10° NNW 06:15:22 12° NNW 06:15:22 12° NNW visible
09 Dec ? 17:16:56 10° W 17:17:25 10° W 17:17:55 10° WNW visible
10 Dec ? 04:54:36 10° N 04:55:30 16° N 04:55:30 16° N visible
11 Dec ? 05:11:56 10° N 05:12:48 15° N 05:12:48 15° N visible
12 Dec ? 05:29:20 10° N 05:30:06 14° N 05:30:06 14° N visible
13 Dec ? 05:46:51 10° N 05:47:24 13° NNW 05:47:24 13° NNW visible
13 Dec ? 16:46:46 10° SW 16:49:52 19° W 16:53:01 10° NW visible
14 Dec ? 04:27:26 10° NNE 04:27:33 11° NNE 04:27:33 11° NNE visible
14 Dec ? 06:04:27 10° NNW 06:04:42 11° NNW 06:04:42 11° NNW visible
14 Dec ? 17:05:16 10° WSW 17:07:19 13° W 17:09:24 10° WNW visible
15 Dec ? 04:44:39 10° NNE 04:44:52 11° NNE 04:44:52 11° NNE visible
